7 * 24
多渠道服务支持
STARLINK-11429是美国于北京时间2024年11月24日08:00发射的星链卫星,隶属于SpaceX公司的星链星座项目。星链项目旨在构建全球卫星互联网星座,为全球偏远地区、海洋、天空等场景提供高速互联网接入服务,该卫星将和其他星链卫星协同,进一步拓展星座覆盖范围与服务能力。
美国
(US)
| 数据来源 | 国际轨道数据 |
| 星历时间: | 2026-09-11T07:23:38+0800 10小时前 查看轨道信息 |
| 半长轴: | 6737.588km |
| 偏心率: | 0.0001751 |
| 轨道倾角: | 53.157° |
| 近地点辐角 | 115.467° |
| 升交点赤经 | 237.943° |
| 平近点角 | 244.653° |
| 近地点: | 358.271km |
| 远地点: | 360.631km |
| 周期: | 91.731分钟 |
| 每日圈数: | 15.698066 |